Wind_Speed
33 33 33 33 32 31 30 28 27 26 24 22 20 19 19 19 18 18 17 16 16 15 15 14 13 12 10 9 9 9 9 9 9 10 11 11 11 11 11 12 13 13 14 14
35 34 34 34 33 32 31 30 29 28 25 23 21 21 21 21 20 19 20 19 18 17 17 16 15 14 12 11 11 10 10 10 10 11 12 12 12 13 13 13 13 14 14 15
36 36 35 35 32 32 32 31 30 29 26 24 24 24 23 22 22 21 22 21 21 21 19 18 17 16 14 14 13 12 12 12 12 12 13 14 14 14 14 14 14 15 15 15
37 37 38 35 34 33 33 32 31 30 28 27 26 25 24 23 23 23 24 24 23 23 22 21 20 18 17 16 15 14 14 14 14 14 14 15 15 15 15 16 16 15 16 17
38 39 38 36 35 35 34 34 33 32 30 29 28 27 26 26 25 24 25 25 25 25 24 23 22 21 20 19 18 18 17 16 17 17 16 16 16 16 16 16 17 18 18 18
39 40 39 35 34 35 35 36 35 33 31 30 29 30 28 28 27 26 26 26 26 26 25 25 23 22 21 21 20 20 19 18 19 18 18 18 18 18 18 18 18 19 19 19
39 40 40 36 36 35 36 36 35 34 32 31 30 30 30 30 29 29 28 27 28 27 26 26 24 22 22 22 22 21 21 21 21 20 20 20 19 20 19 19 19 19 19 18
39 40 39 37 37 37 37 36 35 34 33 33 32 32 31 32 32 31 31 30 29 28 28 27 26 24 23 24 24 24 25 24 22 21 22 22 22 21 21 20 20 19 18 19
39 40 38 37 37 38 38 38 37 36 35 34 34 34 33 34 34 34 32 32 31 31 30 29 28 27 26 26 26 26 26 25 24 24 23 23 23 23 23 22 22 21 20 20
39 39 39 39 38 38 38 39 39 39 37 37 37 36 35 35 35 36 34 33 32 32 32 31 30 29 29 29 28 28 27 27 26 26 25 24 24 24 24 24 24 23 22 22
38 38 39 39 39 38 38 39 39 40 40 39 38 38 37 37 36 36 36 35 34 34 33 33 32 32 31 31 31 30 29 29 28 27 26 26 25 25 25 25 25 24 24 24
37 36 37 38 39 40 40 40 40 40 40 40 40 39 39 39 39 38 38 38 37 35 35 34 34 33 33 33 33 33 32 31 30 29 29 27 27 27 26 27 27 27 26 26
36 36 36 36 37 39 40 40 40 40 39 40 40 41 42 41 40 39 39 38 37 37 36 35 34 34 35 35 35 34 34 33 32 32 31 30 28 28 28 29 29 29 28 27
36 36 35 35 36 37 38 39 39 39 39 39 40 40 42 42 42 41 41 40 39 38 37 36 36 36 36 36 35 34 34 34 33 33 32 31 30 30 30 30 30 30 29 29
37 36 35 34 35 37 38 38 39 39 39 39 38 39 40 41 41 41 41 41 40 39 38 37 37 37 36 35 35 34 34 33 32 32 32 31 31 31 31 31 31 31 31 30
36 37 36 35 35 35 35 37 38 38 38 38 39 39 40 40 40 40 40 40 40 39 38 38 38 37 36 35 34 34 33 33 32 32 33 32 32 32 31 31 31 32 31 30
34 34 35 35 35 35 35 35 35 36 37 38 39 39 40 40 40 40 40 40 38 37 36 36 36 35 35 34 34 33 32 32 32 33 33 33 33 33 32 32 31 31 31 30
31 31 32 33 33 33 34 35 35 36 37 38 39 40 40 40 40 40 40 39 37 36 36 36 35 34 34 33 33 32 32 32 32 32 32 32 32 32 32 32 31 31 30 31
29 29 30 31 31 32 34 34 34 35 36 38 38 38 39 39 39 39 39 37 35 34 34 34 34 33 32 32 32 32 31 31 31 31 31 31 31 31 31 31 31 31 31 31
28 30 31 31 32 32 33 34 34 34 35 35 35 35 35 36 36 36 36 35 33 32 32 32 32 32 31 31 31 30 30 30 31 31 32 32 31 30 30 30 30 30 30 29
28 29 29 30 30 30 30 31 31 30 30 31 32 32 32 33 33 33 33 33 32 30 30 30 30 30 30 30 29 29 30 30 31 31 31 30 29 28 28 28 29 29 29 29
27 27 28 28 28 28 29 28 28 28 29 29 30 31 30 31 30 30 30 29 29 29 29 30 30 30 30 29 29 29 29 29 29 29 28 28 28 28 28 28 28 28 29 29
25 26 26 27 27 26 26 26 26 27 27 27 27 27 27 26 25 25 26 26 27 28 28 28 28 28 29 29 29 29 29 28 28 28 27 27 28 28 28 27 27 28 29 28
23 23 23 24 24 24 24 25 25 26 26 25 24 24 24 23 22 23 24 25 26 26 27 28 28 27 27 27 28 28 28 27 26 26 26 26 26 26 27 27 27 27 27 27
21 21 22 22 21 22 23 23 23 23 23 23 23 24 23 23 24 24 24 24 24 25 26 27 28 28 27 26 25 25 25 25 24 24 25 25 25 25 26 26 26 26 26 26
19 19 20 20 20 21 21 20 21 21 21 22 22 22 22 23 23 23 23 24 24 25 26 26 26 25 24 24 24 24 24 24 24 24 24 24 24 25 25 25 24 24 24 24
17 17 18 18 18 18 19 19 19 19 19 20 21 21 21 22 23 24 24 23 24 24 25 24 24 23 23 24 23 23 23 23 23 23 23 24 24 24 23 23 23 23 23 24
Wind_Direction
226 225 226 228 227 230 234 235 236 239 243 244 245 247 249 258 264 270 274 278 283 286 286 288 288 290 292 290 300 307 314 320 323 326 329 332 333 334 336 336 334 335 336 337
227 227 228 230 229 232 234 236 237 239 241 242 241 244 249 254 261 268 272 276 281 283 283 284 284 287 287 285 289 294 301 306 311 316 320 322 323 325 329 331 330 330 330 332
227 227 229 230 229 230 233 235 238 240 242 244 242 244 250 256 261 264 267 274 277 280 277 277 280 281 283 284 282 282 287 292 301 308 313 315 314 316 317 320 322 323 326 328
228 227 229 231 229 230 233 235 237 238 240 243 244 247 251 255 261 263 266 272 278 281 276 277 278 275 275 276 276 277 279 284 291 298 303 307 309 310 311 313 318 321 322 322
229 229 230 230 230 231 233 235 237 239 241 242 245 246 248 251 256 261 264 269 274 278 280 277 274 273 271 271 272 272 273 279 286 292 296 301 305 306 310 312 314 313 313 316
229 230 229 230 231 233 235 237 237 238 240 242 244 245 247 251 255 258 261 265 269 274 276 272 271 270 270 270 272 272 274 278 283 288 291 294 299 302 305 309 310 310 310 311
232 233 232 230 231 233 235 238 238 240 241 243 244 247 249 252 255 258 260 265 267 271 273 272 273 272 272 273 273 273 273 275 279 282 285 288 293 296 299 302 304 305 307 308
234 235 234 233 234 235 237 239 239 240 243 244 246 248 250 252 255 258 260 263 266 268 269 270 272 273 274 274 274 273 274 275 277 281 283 286 290 292 294 297 299 301 302 304
238 238 237 236 237 237 238 239 240 241 243 246 247 249 251 253 254 256 258 261 265 266 266 267 268 270 271 273 273 273 274 274 276 277 280 283 286 288 289 292 294 295 296 299
240 239 238 238 239 239 239 241 242 242 244 245 246 248 251 252 254 255 257 259 263 264 263 264 267 268 269 271 272 272 273 273 274 276 277 279 281 284 286 287 290 291 294 294
241 242 242 241 241 240 240 241 243 243 245 246 249 250 251 252 253 255 256 259 262 263 264 264 265 267 269 271 272 272 271 272 273 274 274 277 279 281 283 284 285 289 289 290
243 243 244 244 243 243 243 243 245 246 247 247 248 250 251 252 254 256 257 259 261 262 263 264 265 266 267 269 269 270 270 270 271 272 272 274 276 277 279 281 283 285 287 288
243 245 245 244 244 245 246 247 246 246 248 247 248 249 251 253 254 255 256 258 260 261 261 262 263 264 266 267 267 267 268 268 269 269 269 271 272 274 276 279 281 283 285 287
244 247 248 247 248 248 249 248 247 247 248 249 249 250 251 254 255 256 257 257 259 260 260 261 262 263 264 265 265 266 266 266 267 266 267 269 270 273 275 277 279 281 284 285
245 247 249 249 249 249 250 249 247 246 247 249 249 251 253 254 256 257 258 258 258 259 259 260 261 262 263 263 263 264 265 265 265 265 266 267 269 271 274 277 279 281 282 284
245 247 249 249 250 250 250 251 248 247 247 249 251 252 253 254 255 256 257 258 258 258 258 259 259 260 261 261 262 262 262 263 264 264 266 267 270 272 274 276 277 280 280 281
244 245 247 249 249 248 249 250 250 249 250 252 251 252 253 254 255 256 256 256 256 256 256 257 258 258 259 260 260 261 262 263 264 265 266 267 269 271 273 276 277 277 278 280
242 243 245 248 248 248 249 250 250 250 252 253 254 253 254 255 256 256 256 256 256 256 255 255 256 257 258 258 260 261 262 263 265 267 268 268 270 272 273 273 274 276 279 281
242 243 245 247 250 252 253 252 253 253 253 253 253 255 255 255 255 255 256 256 258 257 255 254 254 256 257 258 259 261 263 264 265 267 268 268 269 271 272 272 274 275 277 279
246 248 248 250 251 253 254 254 254 254 255 254 253 253 253 254 255 255 255 255 254 253 251 252 253 254 255 257 258 261 263 265 266 267 268 269 268 270 271 272 273 275 277 278
251 252 252 252 253 255 255 254 254 255 255 255 255 254 252 252 252 254 254 252 250 248 248 249 251 252 254 256 257 260 263 264 265 266 266 265 266 268 270 271 272 272 273 274
251 251 252 251 253 255 255 255 255 255 255 255 255 254 253 253 253 253 252 251 250 248 248 249 251 252 253 254 257 259 261 262 264 265 264 264 264 266 268 269 271 271 272 275
253 253 252 252 253 252 251 252 253 253 253 254 254 252 253 251 250 250 249 248 248 247 248 251 253 253 252 253 256 258 260 262 262 262 262 262 265 267 268 269 270 272 274 277
256 252 251 250 249 249 251 252 252 252 252 252 251 249 249 248 249 249 248 247 246 248 250 250 251 253 254 255 258 259 260 260 261 261 261 262 265 267 269 270 271 272 275 277
254 252 252 252 252 250 250 250 249 249 248 248 247 247 248 247 248 248 247 247 249 251 251 250 251 253 256 257 259 260 261 258 257 257 259 262 265 268 270 271 272 274 275 277
253 251 252 250 249 250 250 250 250 248 246 247 248 247 245 245 247 247 247 247 249 252 253 253 253 253 256 258 258 259 258 256 256 258 260 263 266 269 271 272 273 275 277 278
245 246 247 248 248 249 250 252 249 244 248 250 249 247 247 248 247 246 246 247 252 254 254 254 253 252 253 255 256 257 258 258 259 260 263 265 267 269 270 271 273 274 275 277
Height
5873 5877 5881 5884 5888 5890 5892 5895 5897 5900 5901 5904 5905 5907 5908 5909 5910 5911 5911 5912 5912 5912 5911 5911 5911 5910 5909 5909 5908 5907 5906 5905 5903 5902 5900 5898 5896 5893 5891 5888 5886 5884 5881 5879
5866 5870 5873 5877 5881 5884 5887 5889 5892 5894 5896 5899 5900 5902 5903 5904 5905 5906 5907 5907 5908 5908 5907 5907 5907 5907 5906 5906 5905 5904 5903 5902 5900 5899 5897 5895 5893 5891 5889 5886 5884 5881 5879 5876
5859 5863 5866 5870 5874 5877 5880 5883 5886 5888 5892 5893 5894 5896 5898 5899 5900 5901 5902 5902 5903 5903 5903 5902 5902 5902 5902 5902 5901 5900 5899 5898 5897 5895 5894 5892 5890 5888 5886 5883 5881 5878 5876 5873
5851 5855 5858 5866 5868 5870 5873 5876 5879 5882 5885 5887 5889 5891 5892 5893 5894 5895 5896 5896 5897 5897 5897 5897 5897 5897 5897 5897 5896 5896 5895 5894 5893 5891 5890 5888 5886 5884 5882 5880 5877 5875 5872 5870
5842 5846 5851 5856 5860 5863 5865 5868 5872 5874 5877 5880 5882 5883 5885 5887 5889 5890 5891 5891 5891 5891 5892 5891 5891 5891 5891 5891 5891 5891 5890 5889 5888 5887 5885 5884 5882 5879 5878 5876 5874 5871 5868 5866
5834 5837 5842 5850 5853 5854 5858 5860 5864 5867 5870 5873 5875 5876 5879 5881 5882 5884 5885 5886 5886 5886 5885 5884 5883 5884 5885 5885 5885 5885 5884 5884 5883 5882 5880 5879 5877 5875 5873 5871 5869 5866 5864 5862
5825 5828 5834 5841 5844 5847 5850 5853 5856 5859 5862 5865 5867 5870 5873 5874 5875 5877 5878 5879 5879 5879 5878 5878 5877 5878 5879 5879 5879 5879 5878 5878 5877 5876 5874 5873 5872 5870 5868 5866 5864 5862 5859 5857
5816 5820 5827 5832 5835 5838 5841 5844 5848 5851 5854 5856 5859 5861 5864 5866 5867 5869 5870 5871 5871 5872 5872 5872 5871 5872 5873 5873 5873 5872 5871 5870 5869 5869 5869 5867 5866 5864 5863 5861 5859 5857 5855 5852
5809 5814 5818 5822 5825 5828 5832 5835 5838 5842 5845 5848 5850 5853 5855 5857 5858 5860 5861 5862 5862 5863 5864 5864 5865 5865 5866 5866 5865 5865 5864 5864 5863 5862 5862 5861 5860 5858 5857 5855 5854 5852 5850 5848
5799 5803 5808 5812 5815 5819 5822 5826 5829 5832 5835 5838 5841 5843 5845 5847 5848 5850 5851 5853 5854 5854 5855 5856 5856 5857 5857 5857 5857 5857 5857 5857 5856 5855 5854 5854 5853 5852 5851 5849 5848 5846 5844 5842
5789 5794 5798 5802 5805 5809 5813 5816 5818 5822 5825 5828 5831 5833 5835 5837 5838 5840 5842 5844 5844 5845 5846 5847 5848 5848 5848 5848 5849 5848 5848 5848 5848 5847 5847 5846 5846 5845 5844 5843 5841 5839 5838 5836
5782 5786 5789 5793 5795 5798 5802 5805 5808 5812 5815 5817 5820 5822 5824 5826 5828 5830 5832 5833 5835 5836 5837 5837 5838 5839 5839 5839 5839 5839 5839 5839 5839 5839 5839 5838 5838 5837 5836 5835 5834 5833 5831 5829
5773 5776 5779 5783 5786 5789 5792 5795 5798 5801 5803 5806 5808 5810 5812 5814 5817 5819 5821 5822 5824 5825 5826 5827 5828 5828 5829 5829 5829 5830 5830 5830 5830 5830 5830 5830 5830 5830 5829 5828 5826 5826 5824 5822
5764 5767 5769 5773 5776 5779 5781 5784 5786 5789 5792 5795 5797 5799 5801 5803 5805 5807 5809 5811 5812 5814 5815 5817 5817 5818 5819 5819 5819 5820 5820 5821 5821 5821 5821 5821 5821 5821 5820 5819 5818 5817 5816 5814
5756 5758 5760 5763 5766 5768 5771 5772 5775 5778 5781 5784 5786 5788 5790 5792 5794 5796 5797 5799 5800 5802 5804 5805 5806 5807 5808 5809 5809 5810 5810 5811 5811 5812 5812 5812 5812 5811 5811 5810 5809 5809 5807 5806
5747 5749 5751 5754 5756 5759 5761 5762 5765 5767 5770 5773 5775 5777 5779 5781 5783 5784 5786 5787 5789 5790 5792 5793 5795 5796 5797 5798 5799 5800 5801 5801 5802 5802 5803 5802 5802 5802 5802 5801 5801 5800 5799 5798
5738 5740 5742 5744 5747 5749 5751 5752 5755 5757 5759 5762 5764 5765 5767 5769 5771 5773 5774 5775 5777 5778 5780 5781 5783 5785 5786 5788 5789 5790 5791 5791 5792 5793 5793 5793 5793 5793 5793 5792 5792 5791 5790 5789
5729 5731 5733 5736 5738 5740 5741 5743 5745 5746 5748 5750 5752 5754 5755 5757 5759 5761 5762 5764 5766 5768 5769 5770 5772 5774 5776 5777 5779 5780 5781 5782 5783 5783 5783 5784 5784 5783 5783 5783 5783 5782 5781 5780
5721 5723 5725 5727 5729 5730 5731 5733 5734 5735 5737 5738 5740 5742 5744 5746 5748 5749 5751 5752 5754 5756 5759 5760 5762 5764 5766 5768 5769 5770 5771 5772 5773 5773 5773 5773 5774 5774 5774 5773 5773 5773 5772 5771
5713 5715 5717 5719 5720 5721 5721 5722 5723 5725 5725 5726 5728 5730 5732 5734 5736 5737 5739 5741 5743 5745 5748 5750 5752 5754 5756 5758 5759 5761 5762 5762 5763 5764 5764 5764 5764 5764 5764 5764 5764 5763 5763 5762
5706 5708 5709 5710 5711 5712 5712 5712 5713 5715 5716 5717 5718 5719 5721 5723 5725 5727 5728 5730 5732 5735 5737 5740 5742 5745 5747 5748 5750 5751 5752 5753 5753 5754 5754 5754 5754 5755 5755 5755 5755 5755 5754 5753
5698 5700 5701 5702 5703 5703 5704 5705 5706 5707 5708 5709 5710 5711 5713 5714 5716 5717 5719 5721 5723 5726 5728 5731 5733 5735 5737 5739 5740 5741 5742 5743 5743 5744 5744 5744 5745 5745 5746 5746 5746 5746 5745 5744
5691 5692 5693 5694 5695 5696 5697 5698 5699 5700 5701 5702 5702 5703 5705 5706 5708 5709 5711 5713 5715 5718 5720 5722 5724 5725 5727 5729 5730 5731 5732 5733 5734 5734 5735 5735 5736 5737 5737 5737 5737 5737 5736 5735
5683 5684 5685 5686 5687 5688 5690 5691 5691 5692 5694 5695 5695 5696 5698 5699 5701 5703 5704 5706 5707 5709 5712 5714 5715 5716 5717 5719 5721 5722 5723 5724 5725 5725 5726 5727 5728 5728 5728 5729 5729 5728 5728 5727
5677 5678 5678 5678 5679 5681 5682 5683 5684 5685 5687 5687 5688 5689 5691 5692 5694 5695 5697 5699 5701 5702 5704 5706 5707 5708 5709 5711 5713 5714 5715 5716 5717 5717 5718 5719 5719 5720 5720 5720 5720 5720 5720 5719
5671 5672 5672 5672 5673 5674 5675 5676 5677 5678 5679 5680 5681 5682 5684 5685 5687 5688 5690 5692 5694 5695 5697 5698 5699 5700 5702 5704 5705 5706 5707 5708 5709 5710 5711 5711 5711 5712 5712 5712 5712 5712 5712 5711
5665 5665 5666 5667 5667 5668 5669 5670 5670 5671 5672 5673 5674 5676 5677 5679 5680 5682 5683 5685 5686 5688 5689 5690 5692 5693 5695 5696 5697 5698 5699 5700 5701 5702 5703 5703 5703 5703 5703 5704 5704 5704 5704 5703